EW9366 Weather Reports


Display with metric or nautical units.
time (UTC)temp
F
wind
direction
speed
MPH
gust
MPH
rain 1hr
in
rain 24hr
in
rain mn
in
humidity
%
barometer
mb
20260831230736 100 133 0.0 6.0 0.00 0.00 0.00 34 1015.0
20260831230234 99 28 1.0 6.0 0.00 0.00 0.00 36 1015.1
20260831225711 99 127 2.0 6.0 0.00 0.00 0.00 36 1015.1
20260831225212 99 101 1.0 6.0 0.00 0.00 0.00 35 1015.0
20260831224715 99 53 1.0 4.0 0.00 0.00 0.00 35 1015.0
20260831224639 99 79 0.0 2.0 0.00 0.00 0.00 36 1015.1
20260831223620 98 131 1.0 3.0 0.00 0.00 0.00 37 1015.1
20260831223110 99 77 1.0 4.0 0.00 0.00 0.00 36 1015.1
20260831222606 99 120 1.0 4.0 0.00 0.00 0.00 36 1015.2
20260831222105 99 64 1.0 4.0 0.00 0.00 0.00 35 1015.3
20260831221604 99 240 1.0 3.0 0.00 0.00 0.00 35 1015.1
20260831221101 99 84 1.0 4.0 0.00 0.00 0.00 36 1015.2
20260831220534 99 80 1.0 4.0 0.00 0.00 0.00 35 1015.2
20260831220035 99 76 1.0 3.0 0.00 0.00 0.00 34 1015.2
20260831215948 99 207 1.0 3.0 0.00 0.00 0.00 34 1015.3
20260831215424 99 131 1.0 3.0 0.00 0.00 0.00 35 1015.4
20260831214413 99 217 1.0 4.0 0.00 0.00 0.00 36 1015.4
20260831213910 99 197 1.0 4.0 0.00 0.00 0.00 35 1015.4
20260831213409 100 138 1.0 3.0 0.00 0.00 0.00 35 1015.4
20260831212841 99 199 1.0 3.0 0.00 0.00 0.00 35 1015.3
20260831212336 99 127 2.0 6.0 0.00 0.00 0.00 36 1015.3
20260831212332 100 262 2.0 6.0 0.00 0.00 0.00 34 1015.4
20260831211307 102 283 1.0 5.0 0.00 0.00 0.00 34 1015.4
20260831210738 102 195 0.0 2.0 0.00 0.00 0.00 35 1015.4
20260831210234 101 202 1.0 5.0 0.00 0.00 0.00 35 1015.5
20260831205728 102 51 2.0 5.0 0.00 0.00 0.00 33 1015.5
20260831205226 102 253 1.0 4.0 0.00 0.00 0.00 34 1015.5
20260831204702 103 11 1.0 4.0 0.00 0.00 0.00 35 1015.6
20260831204157 103 141 1.0 5.0 0.00 0.00 0.00 33 1015.7
20260831203653 103 16 2.0 5.0 0.00 0.00 0.00 34 1015.8
20260831203616 103 140 1.0 5.0 0.00 0.00 0.00 33 1015.8
20260831202559 103 189 1.0 3.0 0.00 0.00 0.00 34 1015.9
20260831202534 102 205 1.0 5.0 0.00 0.00 0.00 34 1015.9
20260831201552 103 91 1.0 5.0 0.00 0.00 0.00 33 1015.9
20260831201049 104 150 1.0 5.0 0.00 0.00 0.00 34 1015.9
20260831200545 103 170 1.0 5.0 0.00 0.00 0.00 35 1016.0
20260831200018 103 235 1.0 4.0 0.00 0.00 0.00 36 1016.0
20260831200002 102 203 2.0 6.0 0.00 0.00 0.00 35 1016.2
20260831195000 101 278 2.0 9.0 0.00 0.00 0.00 36 1016.2
20260831194457 101 226 1.0 9.0 0.00 0.00 0.00 36 1016.2
20260831194001 100 157 1.0 4.0 0.00 0.00 0.00 38 1016.4
20260831193433 98 43 1.0 5.0 0.00 0.00 0.00 39 1016.4
20260831192928 98 113 2.0 5.0 0.00 0.00 0.00 40 1016.4
20260831192425 98 92 1.0 3.0 0.00 0.00 0.00 39 1016.5
20260831191856 99 125 0.0 2.0 0.00 0.00 0.00 37 1016.7
20260831191355 100 185 1.0 6.0 0.00 0.00 0.00 37 1016.7
20260831191305 102 295 2.0 6.0 0.00 0.00 0.00 35 1016.8
20260831190324 103 224 1.0 5.0 0.00 0.00 0.00 35 1016.9
20260831185801 102 204 1.0 4.0 0.00 0.00 0.00 36 1016.9
20260831185229 102 188 1.0 5.0 0.00 0.00 0.00 36 1016.9
20260831184729 102 32 1.0 6.0 0.00 0.00 0.00 36 1017.1
20260831184225 103 137 1.0 6.0 0.00 0.00 0.00 35 1017.1
20260831183724 104 210 1.0 4.0 0.00 0.00 0.00 36 1017.1
20260831183154 104 141 1.0 4.0 0.00 0.00 0.00 36 1017.3
20260831182651 103 217 1.0 4.0 0.00 0.00 0.00 35 1017.3
20260831182122 102 214 2.0 4.0 0.00 0.00 0.00 36 1017.4
20260831181618 102 146 2.0 7.0 0.00 0.00 0.00 37 1017.5
20260831181604 101 118 2.0 7.0 0.00 0.00 0.00 39 1017.5
20260831180549 101 139 2.0 7.0 0.00 0.00 0.00 39 1017.6
20260831180038 100 250 1.0 7.0 0.00 0.00 0.00 40 1017.7
20260831175536 100 125 1.0 4.0 0.00 0.00 0.00 41 1017.6
20260831175034 99 155 1.0 6.0 0.00 0.00 0.00 41 1017.7
20260831174506 99 198 3.0 6.0 0.00 0.00 0.00 40 1017.8
20260831173943 98 257 4.0 10.0 0.00 0.00 0.00 42 1017.9
20260831173426 99 278 2.0 10.0 0.00 0.00 0.00 41 1017.9
20260831172926 98 247 2.0 8.0 0.00 0.00 0.00 42 1017.9
20260831172423 98 207 3.0 7.0 0.00 0.00 0.00 43 1018.0
20260831171924 98 250 3.0 9.0 0.00 0.00 0.00 43 1018.1
20260831171419 99 233 2.0 7.0 0.00 0.00 0.00 42 1018.1
20260831170855 99 124 2.0 5.0 0.00 0.00 0.00 43 1018.2
20260831170327 98 188 2.0 8.0 0.00 0.00 0.00 44 1018.3
20260831165801 99 267 1.0 8.0 0.00 0.00 0.00 42 1018.3
20260831165236 98 153 1.0 4.0 0.00 0.00 0.00 44 1018.4
20260831164734 99 278 1.0 4.0 0.00 0.00 0.00 43 1018.6
20260831164702 99 125 1.0 4.0 0.00 0.00 0.00 43 1018.5
20260831164143 99 202 1.0 4.0 0.00 0.00 0.00 44 1018.4
20260831163641 99 172 2.0 8.0 0.00 0.00 0.00 45 1018.5
20260831162648 98 277 2.0 8.0 0.00 0.00 0.00 45 1018.5
20260831162148 98 259 2.0 6.0 0.00 0.00 0.00 44 1018.4
20260831162106 98 206 2.0 7.0 0.00 0.00 0.00 47 1018.4
20260831161052 99 261 2.0 7.0 0.00 0.00 0.00 45 1018.4
20260831160550 99 278 1.0 5.0 0.00 0.00 0.00 46 1018.4
20260831160022 98 214 1.0 3.0 0.00 0.00 0.00 47 1018.4
20260831155519 98 139 1.0 4.0 0.00 0.00 0.00 46 1018.4
20260831154955 98 143 1.0 4.0 0.00 0.00 0.00 47 1018.3
20260831154431 97 134 1.0 5.0 0.00 0.00 0.00 48 1018.3
20260831153902 97 137 1.0 3.0 0.00 0.00 0.00 48 1018.3
20260831153401 96 206 1.0 5.0 0.00 0.00 0.00 50 1018.3
20260831152857 96 141 1.0 4.0 0.00 0.00 0.00 49 1018.3
20260831152820 96 198 1.0 4.0 0.00 0.00 0.00 50 1018.4
20260831151828 95 222 1.0 6.0 0.00 0.00 0.00 51 1018.3
20260831151329 94 137 2.0 6.0 0.00 0.00 0.00 51 1018.4
20260831150806 94 209 2.0 6.0 0.00 0.00 0.00 52 1018.3
20260831150258 94 123 1.0 6.0 0.00 0.00 0.00 50 1018.3
20260831145757 94 187 1.0 2.0 0.00 0.00 0.00 52 1018.3
20260831145228 94 176 1.0 3.0 0.00 0.00 0.00 52 1018.2
20260831145148 93 176 1.0 3.0 0.00 0.00 0.00 53 1018.3
20260831144135 93 154 0.0 2.0 0.00 0.00 0.00 54 1018.3
20260831144057 91 200 1.0 5.0 0.00 0.00 0.00 56 1018.3
20260831143105 91 183 2.0 5.0 0.00 0.00 0.00 55 1018.3
20260831142600 91 199 1.0 5.0 0.00 0.00 0.00 56 1018.3
20260831142100 91 194 0.0 5.0 0.00 0.00 0.00 56 1018.3
20260831141530 90 181 0.0 2.0 0.00 0.00 0.00 57 1018.3
20260831141519 90 162 1.0 3.0 0.00 0.00 0.00 58 1018.4
20260831140526 89 162 0.0 3.0 0.00 0.00 0.00 58 1018.4
20260831140011 89 152 0.0 2.0 0.00 0.00 0.00 60 1018.4
20260831135442 88 138 0.0 2.0 0.00 0.00 0.00 59 1018.3
20260831134943 87 198 0.0 2.0 0.00 0.00 0.00 61 1018.3
20260831134421 87 182 0.0 2.0 0.00 0.00 0.00 62 1018.2
20260831133919 86 148 0.0 1.0 0.00 0.00 0.00 61 1018.1
20260831133416 86 141 0.0 0.0 0.00 0.00 0.00 62 1018.1
20260831132915 85 141 0.0 0.0 0.00 0.00 0.00 63 1018.0
20260831132417 85 141 0.0 0.0 0.00 0.00 0.00 65 1018.1
20260831131914 84 141 0.0 1.0 0.00 0.00 0.00 65 1018.0
20260831131900 83 141 0.0 1.0 0.00 0.00 0.00 66 1018.0
20260831130913 82 141 0.0 1.0 0.00 0.00 0.00 67 1017.9
20260831130415 82 142 0.0 1.0 0.00 0.00 0.00 68 1017.8
20260831125849 81 142 0.0 0.0 0.00 0.00 0.00 72 1017.7
20260831125326 79 142 0.0 0.0 0.00 0.00 0.00 72 1017.8
20260831124804 78 142 0.0 0.0 0.00 0.00 0.00 74 1017.7
20260831124302 77 141 0.0 0.0 0.00 0.00 0.00 76 1017.7
20260831123805 76 142 0.0 0.0 0.00 0.00 0.00 77 1017.6
20260831123243 74 141 0.0 0.0 0.00 0.00 0.00 79 1017.4
20260831122740 73 141 0.0 0.0 0.00 0.00 0.00 80 1017.4
20260831122239 72 141 0.0 0.0 0.00 0.00 0.00 81 1017.3
20260831121722 71 141 0.0 0.0 0.00 0.00 0.00 82 1017.1
20260831121206 70 141 0.0 0.0 0.00 0.00 0.00 82 1017.1
20260831120706 70 141 0.0 0.0 0.00 0.00 0.00 81 1017.3
20260831120203 70 141 0.0 0.0 0.00 0.00 0.00 80 1017.1
20260831115706 70 141 0.0 0.0 0.00 0.00 0.00 80 1017.0
20260831115145 70 141 0.0 0.0 0.00 0.00 0.00 80 1017.0
20260831114631 70 141 0.0 0.0 0.00 0.00 0.00 80 1016.9
20260831114133 71 141 0.0 0.0 0.00 0.00 0.00 80 1016.9
20260831113610 71 141 0.0 0.0 0.00 0.00 0.00 79 1016.8
20260831113112 71 141 0.0 0.0 0.00 0.00 0.00 78 1016.7
20260831112547 71 141 0.0 0.0 0.00 0.00 0.00 78 1016.6
20260831112039 71 141 0.0 0.0 0.00 0.00 0.00 78 1016.6
20260831111540 72 141 0.0 0.0 0.00 0.00 0.00 78 1016.6
20260831111017 72 141 0.0 0.0 0.00 0.00 0.00 78 1016.6
20260831110458 72 141 0.0 0.0 0.00 0.00 0.00 78 1016.5
20260831110441 71 141 0.0 0.0 0.00 0.00 0.00 77 1016.5
20260831105430 71 141 0.0 0.0 0.00 0.00 0.00 77 1016.5
20260831105344 71 141 0.0 0.0 0.00 0.00 0.00 76 1016.6
20260831104828 72 141 0.0 0.0 0.00 0.00 0.00 75 1016.5
20260831104305 72 141 0.0 0.0 0.00 0.00 0.00 76 1016.4
20260831103307 72 141 0.0 0.0 0.00 0.00 0.00 76 1016.5
20260831102801 72 141 0.0 0.0 0.00 0.00 0.00 75 1016.5
20260831102251 72 141 0.0 0.0 0.00 0.00 0.00 75 1016.4
20260831101746 72 141 0.0 0.0 0.00 0.00 0.00 74 1016.4
20260831101735 73 141 0.0 0.0 0.00 0.00 0.00 73 1016.4
20260831100718 73 141 0.0 0.0 0.00 0.00 0.00 73 1016.4
20260831100203 73 141 0.0 0.0 0.00 0.00 0.00 72 1016.5
20260831095704 73 141 0.0 0.0 0.00 0.00 0.00 72 1016.4
20260831095146 74 141 0.0 0.0 0.00 0.00 0.00 72 1016.5
20260831094611 74 141 0.0 0.0 0.00 0.00 0.00 72 1016.4
20260831094105 74 141 0.0 0.0 0.00 0.00 0.00 72 1016.3
20260831093535 74 141 0.0 0.0 0.00 0.00 0.00 72 1016.3
20260831093012 74 141 0.0 0.0 0.00 0.00 0.00 72 1016.2
20260831092511 74 141 0.0 0.0 0.00 0.00 0.00 73 1016.2
20260831092012 74 141 0.0 0.0 0.00 0.00 0.00 72 1016.1
20260831091446 74 141 0.0 0.0 0.00 0.00 0.00 72 1016.1
20260831091437 75 141 0.0 0.0 0.00 0.00 0.00 71 1016.2
20260831090923 75 141 0.0 0.0 0.00 0.00 0.00 70 1016.1
20260831085936 75 141 0.0 1.0 0.00 0.00 0.00 70 1016.0
20260831085417 74 141 0.0 1.0 0.00 0.00 0.00 70 1016.0
20260831084850 74 141 0.0 1.0 0.00 0.00 0.00 70 1016.0
20260831084328 74 141 0.0 0.0 0.00 0.00 0.00 69 1016.0
20260831083827 74 141 0.0 0.0 0.00 0.00 0.00 69 1015.9
20260831083327 75 141 0.0 0.0 0.00 0.00 0.00 69 1015.9
20260831082829 75 148 0.0 0.0 0.00 0.00 0.00 68 1015.9
20260831082315 74 148 0.0 0.0 0.00 0.00 0.00 68 1015.9
20260831081749 74 148 0.0 0.0 0.00 0.00 0.00 68 1015.9
20260831081221 74 148 0.0 0.0 0.00 0.00 0.00 69 1015.8
20260831080704 74 162 0.0 0.0 0.00 0.00 0.00 69 1015.8
20260831080200 74 162 0.0 0.0 0.00 0.00 0.00 69 1015.7
20260831075636 74 162 0.0 0.0 0.00 0.00 0.00 68 1015.7
20260831075110 74 162 0.0 0.0 0.00 0.00 0.00 68 1015.7
20260831074604 74 162 0.0 0.0 0.00 0.00 0.00 68 1015.8
20260831074100 74 162 0.0 0.0 0.00 0.00 0.00 68 1015.7
20260831073556 75 162 0.0 0.0 0.00 0.00 0.00 66 1015.7
20260831073058 75 162 0.0 0.0 0.00 0.00 0.00 66 1015.9
20260831072534 75 161 0.0 0.0 0.00 0.00 0.00 65 1015.9
20260831072013 75 161 0.0 0.0 0.00 0.00 0.00 65 1015.8
20260831071515 75 162 0.0 0.0 0.00 0.00 0.00 66 1015.9
20260831070951 76 162 0.0 0.0 0.00 0.00 0.00 64 1015.8
20260831070445 76 162 0.0 0.0 0.00 0.00 0.00 63 1015.8
20260831065944 76 162 0.0 0.0 0.00 0.00 0.00 64 1015.9
20260831065429 76 162 0.0 0.0 0.00 0.00 0.00 64 1016.0
20260831064926 76 162 0.0 0.0 0.00 0.00 0.00 63 1016.0
20260831064413 77 162 0.0 0.0 0.00 0.00 0.00 63 1016.0
20260831063909 76 162 0.0 0.0 0.00 0.00 0.00 63 1016.0
20260831063409 77 176 0.0 0.0 0.00 0.00 0.00 62 1016.1
20260831062907 77 176 0.0 0.0 0.00 0.00 0.00 62 1016.0
20260831062413 77 176 0.0 0.0 0.00 0.00 0.00 61 1016.1
20260831062407 77 176 0.0 0.0 0.00 0.00 0.00 62 1016.1
20260831061404 78 176 0.0 0.0 0.00 0.00 0.00 61 1016.0
20260831060901 78 170 0.0 0.0 0.00 0.00 0.00 61 1016.0
20260831060847 78 174 0.0 0.0 0.00 0.00 0.00 60 1016.1
20260831055854 78 174 0.0 0.0 0.00 0.00 0.00 60 1016.1
20260831055333 78 174 0.0 0.0 0.00 0.00 0.00 60 1016.0
20260831054816 78 173 0.0 0.0 0.00 0.00 0.00 60 1016.1
20260831054750 78 173 0.0 1.0 0.00 0.00 0.00 59 1016.1
20260831053808 78 131 0.0 1.0 0.00 0.00 0.00 59 1016.0
20260831053756 79 131 0.0 1.0 0.00 0.00 0.00 59 1016.0
20260831053233 79 131 0.0 1.0 0.00 0.00 0.00 58 1016.0
20260831052245 79 114 0.0 1.0 0.00 0.00 0.00 58 1015.9
20260831051746 79 129 0.0 1.0 0.00 0.00 0.00 59 1015.8
20260831051217 79 165 0.0 2.0 0.00 0.00 0.00 59 1015.9
20260831051204 79 109 0.0 2.0 0.00 0.00 0.00 59 1015.8
20260831050158 79 85 0.0 1.0 0.00 0.00 0.00 60 1015.7
20260831045916 79 308 0.0 1.0 0.00 0.00 0.00 60 1015.7
20260831045704 79 308 0.0 1.0 0.00 0.00 0.00 60 1015.7
20260831045635 80 153 0.0 1.0 0.00 0.00 0.00 60 1015.7
20260831044620 80 127 0.0 1.0 0.00 0.00 0.00 60 1015.6
20260831044119 80 134 0.0 1.0 0.00 0.00 0.00 60 1015.6
20260831043550 80 185 0.0 1.0 0.00 0.00 0.00 59 1015.6
20260831043048 81 127 0.0 2.0 0.00 0.00 0.00 59 1015.7
20260831042524 81 132 0.0 2.0 0.00 0.00 0.00 59 1015.6
20260831041954 82 194 0.0 1.0 0.00 0.00 0.00 59 1015.5
20260831041651 82 123 1.0 3.0 0.00 0.00 0.00 58 1015.6
20260831041644 82 134 0.0 3.0 0.00 0.00 0.00 58 1015.6
20260831040428 82 137 1.0 4.0 0.00 0.00 0.00 58 1015.6
20260831035859 83 117 1.0 4.0 0.00 0.00 0.00 58 1015.4
20260831035357 83 122 1.0 4.0 0.00 0.00 0.00 58 1015.4
20260831034827 83 81 0.0 3.0 0.00 0.00 0.00 58 1015.3
20260831034322 83 143 1.0 4.0 0.00 0.00 0.00 57 1015.4
20260831033818 83 109 1.0 4.0 0.00 0.00 0.00 57 1015.3
20260831033312 83 158 1.0 3.0 0.00 0.00 0.00 57 1015.2
20260831032811 83 141 1.0 3.0 0.00 0.00 0.00 57 1015.3
20260831032259 83 70 1.0 5.0 0.00 0.00 0.00 57 1015.3
20260831031732 84 101 1.0 5.0 0.00 0.00 0.00 57 1015.2
20260831031204 84 156 1.0 3.0 0.00 0.00 0.00 56 1015.2
20260831030702 84 89 1.0 3.0 0.00 0.00 0.00 56 1015.2
20260831030635 84 1 1.0 4.0 0.00 0.00 0.00 57 1015.2
20260831025632 84 116 0.0 4.0 0.00 0.00 0.00 56 1015.2
20260831025105 84 357 1.0 5.0 0.00 0.00 0.00 55 1015.1
20260831025011 85 213 1.0 6.0 0.00 0.00 0.00 55 1015.1
20260831024034 85 132 1.0 6.0 0.00 0.00 0.00 55 1015.0
20260831023506 85 335 0.0 3.0 0.00 0.00 0.00 54 1015.1
20260831023448 85 34 0.0 2.0 0.00 0.00 0.00 53 1015.0
20260831022925 85 126 0.0 2.0 0.00 0.00 0.00 53 1015.0
20260831022415 84 89 0.0 1.0 0.00 0.00 0.00 53 1014.9
20260831021425 84 139 0.0 3.0 0.00 0.00 0.00 53 1014.8
20260831020857 84 181 0.0 3.0 0.00 0.00 0.00 53 1014.8
20260831020352 84 266 0.0 2.0 0.00 0.00 0.00 52 1014.7
20260831015853 84 92 0.0 0.0 0.00 0.00 0.00 52 1014.7
20260831015327 85 92 0.0 1.0 0.00 0.00 0.00 51 1014.6
20260831014820 85 92 0.0 1.0 0.00 0.00 0.00 51 1014.3
20260831014319 85 92 0.0 1.0 0.00 0.00 0.00 50 1014.1
20260831013752 85 92 0.0 1.0 0.00 0.00 0.00 51 1014.0
20260831013249 85 95 0.0 1.0 0.00 0.00 0.00 50 1013.9
20260831012745 86 75 0.0 1.0 0.00 0.00 0.00 50 1013.9
20260831012236 86 75 0.0 1.0 0.00 0.00 0.00 49 1013.9
20260831011732 87 131 0.0 1.0 0.00 0.00 0.00 48 1013.9
20260831011207 87 131 0.0 2.0 0.00 0.00 0.00 47 1013.8
20260831010701 87 136 0.0 2.0 0.00 0.00 0.00 46 1013.8
20260831010132 88 134 0.0 0.0 0.00 0.00 0.00 45 1013.8
20260831005631 89 134 0.0 0.0 0.00 0.00 0.00 45 1013.7
20260831005550 90 134 0.0 0.0 0.00 0.00 0.00 44 1013.8
20260831004600 91 134 0.0 1.0 0.00 0.00 0.00 42 1013.8
20260831004031 92 134 0.0 1.0 0.00 0.00 0.00 41 1013.9
20260831004012 94 134 0.0 1.0 0.00 0.00 0.00 39 1014.0
20260831003023 94 134 0.0 1.0 0.00 0.00 0.00 38 1013.9
20260831002449 95 134 0.0 1.0 0.00 0.00 0.00 37 1013.9
20260831001948 95 131 0.0 1.0 0.00 0.00 0.00 37 1013.9
20260831001932 96 131 0.0 1.0 0.00 0.00 0.00 37 1013.9
20260831000929 96 131 0.0 2.0 0.00 0.00 0.00 37 1013.9
20260831000903 96 168 0.0 2.0 0.00 0.00 0.00 37 1013.9
20260830235929 96 143 0.0 1.0 0.00 0.00 0.00 37 1013.9
20260830235433 95 174 0.0 1.0 0.00 0.00 0.00 36 1014.0
20260830234904 96 139 0.0 2.0 0.00 0.00 0.00 36 1014.1
20260830234400 96 130 0.0 4.0 0.00 0.00 0.00 36 1014.1
20260830233901 97 203 1.0 4.0 0.00 0.00 0.00 35 1014.1
20260830233334 98 139 1.0 4.0 0.00 0.00 0.00 34 1014.0
20260830232826 99 152 1.0 4.0 0.00 0.00 0.00 34 1014.2
20260830232325 99 156 1.0 3.0 0.00 0.00 0.00 34 1014.1
20260830231828 99 195 1.0 3.0 0.00 0.00 0.00 34 1014.1